Regional Weather Roundup
Issued by NWS Wilmington, NC

Home | Current Version | Previous Version | Text Only | Print | Product List | Glossary On
Versions: 1 2 3 4 5 6 7 8 9 10 11 12 13 14 15 16 17 18 19 20 21 22 23 24 25 26 27 28 29 30 31 32 33 34 35 36 37 38 39 40 41 42 43 44 45 46 47 48 49 50
000
ASUS42 KILM 030913
RWRILM
RWRILM
REGIONAL HOURLY WEATHER ROUNDUP
NATIONAL WEATHER SERVICE WILMINGTON NC
500 AM EDT THU SEP 03 2015

NOTE: "FAIR" INDICATES FEW OR NO CLOUDS BELOW 12,000 FEET WITH NO
SIGNIFICANT WEATHER AND/OR OBSTRUCTIONS TO VISIBILITY.

...............WFO WILMINGTON COUNTY WARNING AREA...............

......COASTAL NC AND SC COUNTIES......

CITY           SKY/WX    TMP DP  RH WIND       PRES   REMARKS
WILMINGTON     PTCLDY    75  72  90 N8        29.95S
N MYRTLE BEACH PTCLDY    75  73  93 W3        29.94S
MYRTLE BEACH   PTCLDY    77  70  78 NW3       29.95F

......INLAND NC AND SC COUNTIES.......

CITY           SKY/WX    TMP DP  RH WIND       PRES   REMARKS
LUMBERTON      PTCLDY    74  72  93 CALM      29.93F
ELIZABETHTOWN  PTCLDY    74  73  96 E5        29.94F
WHITEVILLE     CLOUDY    75  73  92 CALM      29.94S
FLORENCE       MOCLDY    76  73  91 CALM      29.93F
DARLINGTON     CLOUDY    75  70  83 NE3       29.95S

....................REST OF NORTH CAROLINA......................

.........EASTERN NC.........

CITY           SKY/WX    TMP DP  RH WIND       PRES   REMARKS
CAPE HATTERAS  CLOUDY    75  73  93 W3        29.90F
JACKSONVILLE   CLOUDY    70  64  83 S8        29.94F THUNDER
MOREHEAD CITY  MOCLDY    74  68  81 NW12      29.94R
KENANSVILLE      N/A     70  69  96 CALM      29.93F
NEW BERN       LGT RAIN  70  67  90 SW8       29.93F
ELIZABETH CITY PTCLDY    70  69  97 W8        29.92F

.........CENTRAL NC.........

CITY           SKY/WX    TMP DP  RH WIND       PRES   REMARKS
RALEIGH DURHAM FOG       70  69  97 CALM      29.95F VSB 1/2
ROCKY MOUNT    FOG       70  69  97 NE6       29.94S VSB 3/4
ROANOKE RAPIDS NOT AVBL
FAYETTEVILLE   PTCLDY    74  69  85 SE5       29.93F
HOFFMAN        CLEAR     73  69  90 SW1       29.94S

.........WESTERN NC.........

CITY           SKY/WX    TMP DP  RH WIND       PRES   REMARKS
CHARLOTTE      MOCLDY    75  67  76 CALM      29.98S
GREENSBORO     PTCLDY    71  65  81 NE3       29.97S
HICKORY        NOT AVBL
BOONE          NOT AVBL
ASHEVILLE      NOT AVBL

.....................REST OF SOUTH CAROLINA.....................

.........EASTERN SC.........

CITY           SKY/WX    TMP DP  RH WIND       PRES   REMARKS
CHARLESTON     PTCLDY    74  72  93 N3        29.95S
BEAUFORT MCAS  MOCLDY    76  73  91 N6        29.94F
HILTON HEAD    MOCLDY    79  79 100 N6        29.94F

.........CENTRAL SC.........

CITY           SKY/WX    TMP DP  RH WIND       PRES   REMARKS
COLUMBIA       MOCLDY    75  71  87 CALM      29.94S
ORANGEBURG     PTCLDY    73  71  93 CALM      29.96S
SUMTER SHAW    MOCLDY    76  72  86 VRB2      29.93S

.........WESTERN SC.........

CITY           SKY/WX    TMP DP  RH WIND       PRES   REMARKS
GREENVILLE     NOT AVBL
ROCK HILL      MOCLDY    73  69  87 CALM      29.97S
ANDERSON       PTCLDY    71  69  93 S3        29.98R
CLEMSON        NOT AVBL
GREENWOOD      MOCLDY    71  69  93 CALM      29.98S


...................COASTAL AND OFFSHORE REPORTS..................

................LOCAL PIERS AND NC RESERVE................


STATION/POSITION TIME  SKY/WX   TEMP    WIND        PRES    VSBY
                                AIR SEA DIR/SP/G
                 (UTC)          (F)     (DEG/KT/KT) (MB)    (MI)
JOHNY MRCER PIER 0800            77 83   10/  7/ 10 1013.8R
NC RESRV MASNBRO NOT AVBL
OCEAN CREST PIER NOT AVBL
SPRINGMAID  PIER 0800            77 83  270/  6/  8 1013.7F


................COASTAL AND OFFSHORE BUOYS................


STATION/POSITION TIME  SKY/WX   TEMP    WIND        PRES    VSBY
                                AIR SEA DIR/SP/G
                 (UTC)          (F)     (DEG/KT/KT) (MB)    (MI)
DIMNDSHOAL 41025 0850            81 85  310/  6/  8 1012.8F
WVE H/P(F/S)=  2/13 WND WVE H/P(F/S)=  2/ 3 SWL H/P/D(F/S/D)=  2/190/13

CAPE LOOKOUT     0900            75     300/ 11/ 13 1013.4R
ONSLOW BAY 41036 NOT AVBL
ONSLOW BAY 41064 0808            79 81   30/ 12/ 16 1014.5S
ONSLOW BAY 41159 0825               81                N/A
WVE H/P(F/S)=  2/ 8 WND WVE H/P(F/S)=  2/ 8

5SE WRITBC 41038 0808            79 82   10/ 12/ 16 1014.2R
MASNBO INL 41110 0819               82                N/A
WVE H/P(F/S)=  1/ 8 WND WVE H/P(F/S)=  2/ 8

WILM HARBR 41108 0811               83                N/A
WVE H/P(F/S)=  2/ 4 WND WVE H/P(F/S)=  2/ 4

27SE WRITB 41037 0800            78 82  320/ 10/ 12   N/A
FRYING PAN 41013 0850            82 81  270/  8/  8 1014.1F
WVE H/P(F/S)=  2/ 9 WND WVE H/P(F/S)=  2/ 4 SWL H/P/D(F/S/D)=  2/130/ 9

SUNST NRSH 41024 0808            80     290/  6/  8 1013.8R
CAPRS NRSH 41029 0808            81     270/  4/  6 1014.4F
EDISTO     41004 0850            82 84  310/  2/  4 1013.7F
WVE H/P(F/S)=  2/ 9 SWL H/P/D(F/S/D)=  2/ 9



..........OFFSHORE BUOYS BEYOND 100 NM OFFSHORE...........
.....IN A TRIANGLE---HAT TO BERMUDA TO BAHAMAS TO HAT.....


STATION/POSITION TIME  SKY/WX   TEMP    WIND        PRES    VSBY
                                AIR SEA DIR/SP/G
                 (UTC)          (F)     (DEG/KT/KT) (MB)    (MI)
150E HAT   41001 0900            80 82  310/  4/  6 1012.9F
W BERMUDA  41048 0850            81 83  310/ 14/ 16 1011.0R
WVE H/P(F/S)=  3/ 5 WND WVE H/P(F/S)=  3/ 5 SWL H/P/D(F/S/D)=  2/150/13

ATLANTIC S 41049 0850            83 86  260/  6/  8 1013.9S
WVE H/P(F/S)=  3/12 WND WVE H/P(F/S)=  2/ 4 SWL H/P/D(F/S/D)=  2/ 10/12

E BAHAMAS  41046 0850            83 86   CALM  /  2 1014.6R
WVE H/P(F/S)=  2/14 SWL H/P/D(F/S/D)=  2/ 10/14

NE BAHAMAS 41047 0850            83 85  270/  8/ 10 1013.6F
WVE H/P(F/S)=  2/13 SWL H/P/D(F/S/D)=  2/ 70/13

120E CANVRL41010 0820            84 86  190/  6/  8 1014.5F

END



USA.gov is the U.S. government's official web portal to all federal, state and local government web resources and services.